www.pogodaiklimat.ru
ПОГОДА в Аэропорту Пиарко

Архив погоды в Аэропорту Пиарко (Тринидад и Тобаго)

Время
(UTC), дата
15 16.01
18 16.01
21 16.01
00 17.01
03 17.01
06 17.01
09 17.01
12 17.01
18 17.01
21 17.01
00 18.01
03 18.01
06 18.01
09 18.01
12 18.01
15 18.01
18 18.01
21 18.01
00 19.01
03 19.01
12 19.01
15 19.01
18 19.01
21 19.01
00 20.01
03 20.01
06 20.01
09 20.01
12 20.01
15 20.01
18 20.01
21 20.01
00 21.01
03 21.01
06 21.01
09 21.01
12 21.01
15 21.01
18 21.01
21 21.01
00 22.01
03 22.01
06 22.01
09 22.01
12 22.01
15 22.01
18 22.01
21 22.01
00 23.01
03 23.01
06 23.01
09 23.01
12 23.01
Ветер
(напр.,м/с)
Видим. Явления Облачность Т
(С)
Тd
(С)
f
(%)
Тe
(С)
Тes
(С)
Комфортность P
(гПа)
Po
(гПа)
Тmin
(С)
Tmax
(С)
R
(мм)
R24
(мм)
S
(см)
В 5 10 км осадки на расстоянии 9/6 300 м
[Cu Sc Ac lent Ci sp]
+29.5 +22.1 64 +38 +40 очень
душно
1015.2 1012.7
В 5 20 км слаб. ливневой дождь 9/8 540 м
[Cu Sc Ac As Ci sp]
+27.9 +21.9 70 +36 +37 очень
душно
1012.7 1010.2 +23.4 +30.9
В 5 22 км мгла {ливн. дождь} 1/1 600 м
[Cu Sc Ac As Ci sp]
+28.2 +21.4 67 +36 +36 очень
душно
1011.8 1009.3
В 2 22 км мгла {ливн. дождь} 1/1 540 м
[Cu hum Ci sp]
+24.7 +20.5 77 +31 +31 очень
душно
1014.1 1011.6 +23.4 +30.9 0.8
штиль 0 22 км мгла 1/1 300 м
[Cu hum]
+23.9 +20.6 82 +30 +30 очень
душно
1015.6 1013.1
штиль 0 22 км мгла 1/1 480 м
[Cu hum]
+23.0 +19.9 83 +30 +30 очень
душно
1013.7 1011.2
штиль 0 25 км 1/1 300 м
[Cu Sc]
+21.4 +19.4 88 +26 +26 душно 1013.3 1010.8
штиль 0 20 км дымка 1/1 660 м
[Cu hum Ac lent]
+24.5 +21.9 85 +31 +35 очень
душно
1014.7 1012.2 +20.3 +30.9 1.9
В 4 24 км осадки на расстоянии 5/5 750 м
[Cu Sc Ac lent]
+30.9 +19.9 52 +37 +41 очень
душно
1012.9 1010.4 +20.3 +32.1
ЮВ 4 18 км осадки на расстоянии 9/5 300 м
[Cu Sc Ac As Ci sp]
+28.0 +20.3 63 +34 +35 очень
душно
1012.1 1009.6
ЮВ 2 8000 м осадки на расстоянии {ливн. дождь} 9/6 480 м
[Cu Sc Ac As Ci sp]
+24.2 +21.5 85 +31 +31 очень
душно
1013.6 1011.1 +20.3 +32.1 0.1
штиль 0 20 км {ливн. дождь} 6/1 300 м
[Cu Sc Ac trans Ci sp]
+23.6 +21.9 90 +30 +30 очень
душно
1014.4 1011.9
штиль 0 25 км {ливн. дождь} 1/1 480 м
[Cu Sc]
+22.5 +21.1 92 +30 +30 очень
душно
1013.3 1010.8 +20.3 +32.1
штиль 0 25 км 3/3 300 м
[Cu hum]
+22.2 +20.9 92 +29 +29 очень
душно
1013.1 1010.6
штиль 0 25 км 1/1 480 м
[Cu Sc]
+24.7 +22.9 90 +33 +37 очень
душно
1015.2 1012.7 +21.6 +32.1 0.6 0.7
В 6 16 км осадки на расстоянии 6/6 600 м
[Cu Sc As op]
+29.4 +21.8 64 +38 +40 очень
душно
1015.7 1014.0 13
В 5 10 км осадки на расстоянии {ливн. дождь} 8/8 540 м
[Cu Sc Ac As]
+27.5 +20.8 67 +34 +36 очень
душно
1013.7 1011.2 +21.6 +31.0 0.0
ЮВ 3 5000 м осадки на расстоянии {ливн. дождь} 8/8 300 м
[Cu Sc]
+25.9 +21.5 77 +33 +33 очень
душно
1013.3 1010.8
В 4 7000 м слаб. ливневой дождь 9/9 480 м
[Cu Sc]
+23.9 +22.1 90 +31 +31 очень
душно
1014.6 1012.1 +21.6 +31.0 1
В 3 12 км слаб. дождь {ливн. дождь} 9/8 300 м
[Cu Sc Ac As]
+22.9 +21.5 92 +31 +31 очень
душно
1015.5 1013.0
штиль 0 26 км {дождь} 1/1 540 м
[Cu Sc Ac lent]
+24.5 +22.6 89 +32 +36 очень
душно
1016.4 1013.9 +21.9 +31.0 3 1.2
В 8 20 км 4/4 600 м
[Cu Sc Ac lent]
+28.1 +20.9 65 +35 +37 очень
душно
1016.9 1014.4
ЮВ 7 20 км 4/4 900 м
[Cu Sc Ac lent]
+30.1 +18.2 49 +35 +37 очень
душно
1014.5 1012.0 +21.9 +30.7
ЮВ 4 20 км 3/3 300 м
[Cu Sc Ac lent]
+28.6 +20.0 60 +35 +35 очень
душно
1014.3 1011.8
штиль 0 22 км 1/1 540 м
[Cu hum]
+25.1 +19.5 71 +30 +30 душно 1015.4 1012.9 +21.9 +30.8
штиль 0 22 км 1/1 300 м
[Cu hum]
+23.3 +20.6 85 +31 +31 очень
душно
1016.1 1013.6
штиль 0 22 км ясно +22.9 +20.7 87 +30 +30 очень
душно
1014.6 1012.1 +21.9 +30.8
штиль 0 22 км 3/1 300 м
[Cu hum Ci sp]
+22.5 +20.1 86 +29 +29 очень
душно
1013.7 1011.2
В 3 22 км 1/1 500 м
[Cu Sc]
+25.6 +20.4 73 +32 +34 очень
душно
1015.6 1013.1 +21.7 +30.8
ЮВ 6 28 км дым 8/6 600 м
[Cu Sc Ac As]
+30.2 +19.0 51 +36 +37 очень
душно
1015.8 1013.3
ЮВ 6 14 км дым 9/5 750 м
[Cu Sc Ac As Ci sp]
+31.0 +19.1 49 +36 +38 очень
душно
1013.4 1011.7 +21.7 +31.6
В 4 22 км дым 4/1 600 м
[Cu Sc Ac As Ci sp]
+28.8 +20.4 60 +35 +36 очень
душно
1012.3 1009.8
В 3 20 км 4/1 540 м
[Cu Sc Ac lent]
+25.6 +19.6 69 +31 +31 очень
душно
1013.7 1011.2 +21.7 +31.6
штиль 0 20 км 5/1 300 м
[Cu Sc Ac lent]
+24.5 +19.7 75 +30 +30 очень
душно
1014.0 1011.5
штиль 0 20 км осадки на расстоянии 6/3 480 м
[Cu Sc Ac As]
+23.6 +21.6 89 +30 +30 очень
душно
1013.0 1010.5 +21.7 +31.6
штиль 0 14 км осадки на расстоянии {дождь} 9/9 300 м
[Cu Sc]
+23.7 +22.0 90 +31 +31 очень
душно
1012.5 1010.0
В 3 8000 м слаб. дождь 9/9 450 м
[Cu Sc]
+24.4 +22.9 91 +32 +33 очень
душно
1014.5 1012.0 +23.2 +31.6 0.5 0.5
ЮВ 6 12 км осадки на расстоянии {дождь} 9/8 300 м
[Cu Sc Ac trans]
+28.7 +22.0 67 +37 +38 очень
душно
1014.8 1011.4
В 6 16 км слаб. дождь {ливн. дождь} 9/9 540 м
[Cu Sc]
+27.6 +20.6 66 +34 +35 очень
душно
1012.4 1009.9 +23.2 +29.5 0.1
В 7 18 км осадки на расстоянии 8/6 600 м
[Cu Sc Ac As Ci fib]
+28.0 +19.5 60 +34 +34 очень
душно
1011.8 1009.3
В 4 24 км 8/1 540 м
[Cu med, cong Ac As Ci sp]
+25.8 +20.0 70 +32 +32 очень
душно
1012.8 1010.3 +29.8
В 3 25 км 1/1 300 м
[Cu Sc Ac As Ci sp]
+24.8 +19.7 73 +30 +30 душно 1014.0 1011.5
В 4 16 км осадки на расстоянии 9/5 480 м
[Cu Sc Ac As]
+23.9 +20.4 81 +30 +30 очень
душно
1013.2 1010.7 +23.2 +29.8
ЮВ 2 25 км 4/4 540 м
[Cu Sc Ac lent]
+22.7 +20.9 90 +30 +30 очень
душно
1012.9 1010.4
В 4 20 км мгла 1/1 600 м
[Cu hum Ac lent]
+25.3 +22.5 84 +33 +35 очень
душно
1014.8 1012.3 +21.6 +29.9 0.1
В 5 22 км мгла 4/4 720 м
[Cu hum]
+29.9 +18.8 51 +35 +40 очень
душно
1015.3 1012.8
ЮВ 5 26 км дым 1/1 180 м
[Cu hum]
+29.8 +17.0 46 +33 +39 душно 1013.0 1010.5 +21.6 +31.1
ЮВ 5 18 км дым 3/1 660 м
[Cu hum Ci sp]
+28.4 +18.8 56 +34 +34 очень
душно
1012.0 1009.5
штиль 0 20 км дым 1/1 600 м
[Cu hum Ci sp]
+24.6 +18.7 70 +29 +29 душно 1012.9 1010.4 +21.6 +31.1
штиль 0 16 км осадки на расстоянии 1/1 450 м
[Cu med, cong]
+22.4 +18.3 78 +28 +28 душно 1013.7 1011.2
штиль 0 25 км 1/1 450 м
[Cu Sc]
+21.6 +19.1 86 +27 +27 душно 1012.3 1009.8 +21.4 +31.1
штиль 0 25 км 1/1 450 м
[Cu hum Ci sp]
+20.3 +18.6 90 +24 +24 комфорт 1012.2 1009.7
штиль 0 22 км 3/3 480 м
[Cu Sc]
+23.3 +21.1 87 +31 +34 очень
душно
1014.1 1011.6 +19.4 +31.1
Местоположение метеостанции Аэропорт Пиарко (Тринидад и Тобаго): широта 10.62 долгота -61.34 высота над уровнем моря 15 м.
В архиве по умолчанию представлена погода в Аэропорту Пиарко за последнюю неделю. Архивные данные за месяц целиком и за предыдущие месяцы, начиная с января 2011 года, Вы можете получить, выбрав интересующий диапазон дат из раскрывающегося списка и нажав кнопку "Найти!".
*Определитесь, кто Вы:
Внимание! Время в таблицах - всемирное. Для получения местного времени необходимо прибавить поправку, которая равна -4 ч.
Смотрите также архив погоды в соседних городах и на ближайших метеорологических станциях:
Партнеры нашего сайта:      
Пояснения к столбцам:
  • Ветер - указаны скорость ветра в м/с - средняя за 10 мин, порывы в срок и между сроками (в фигурных скобках) и направление, откуда дует ветер: С - северный,
  • СВ - северо-восточный, В - восточный, ЮВ - юго-восточный, Ю - южный, ЮЗ - юго-западный, З - западный, СЗ - северо-западный.
  • Видимость - горизонтальная дальность видимости в метрах или километрах. При видимости от 1 до 10 км при отсутствии осадков обычно наблюдается дымка, при ухудшении видимости до 1 км и менее - туман. В сухую погоду видимость может ухудшаться дымом, пылью или мглою.
  • Явления - указаны атмосферные явления, наблюдавшиеся в срок или в последний час перед сроком; фигурными скобками обозначены явления, наблюдавшиеся между сроками (за 1-3 часа до срока); квадратными скобками обозначены град или гололедные отложения с указанием их диаметра в мм.
  • Облачность - указаны через наклонную черту общая и нижняя облачность в баллах и высота нижней границы облаков в метрах; квадратными скобками обозначены формы облаков: Ci - перистые, Cs - перисто-слоистые, Cc - перисто-кучевые, Ac - высококучевые, As - высокослоистые, Sc - слоисто-кучевые, Ns - слоисто-дождевые, Cu - кучевые, Cb - кучево-дождевые. Подробнее классификацию облаков см. в Атласе облаков (PDF).
  • T - Температура воздуха - температура, измеренная на высоте 2 м над землей.
  • Td - Температура точки росы - температура, при понижении до которой содержащийся в воздухе водяной пар достигнет насыщения.
  • f - Относительная влажность воздуха - влажноcть воздуха, измеренная на высоте 2 м над землей.
  • Te - Эффективная температура - температура, которую ощущает одетый по сезону человек в тени. Характеристика душности погоды. При расчете учитывается влияние влажности воздуха и скорости ветра на теплоощущения человека.
  • Tes - Эффективная температура на солнце - температура, которую ощущает человек, с поправкой на солнечный нагрев. Характеристика знойности погоды. Зависит от высоты солнца над горизонтом, облачности и скорости ветра. Ночью, в пасмурную погоду, а также при ветре 12 м/с и более поправка равна нулю.
  • P - Атмосферное давление - приведенное к уровню моря атмосферное давление.
  • Po - Атмосферное давление - измеренное на уровне метеостанции атмосферное давление.
  • Tmin - Минимальная температура - минимум температуры воздуха на высоте 2 м над землей.
  • Tmax - Максимальная температура - максимум температуры воздуха на высоте 2 м над землей.
  • R - Количество осадков - Количество выпавших осадков за период времени, мм. При наведении курсора мыши на число - период времени, за который выпало указанное количество осадков.
  • R24 - Количество осадков - Количество выпавших осадков за 24 часа, мм.
  • S - Снежный покров - Высота снежного покрова, см. При наведении курсора мыши на число - состояние снежного покрова и степень покрытия местности в баллах.